EA8CHC Sevilla ES current weather conditions

sailwx.info

Wind from 132

Air temperature 18.9° C
Dewpoint 14.8° C

Last reported at 2017-Jul-22 04:07 UTC.
Time now 2017-Jul-22 04:40 UTC

Location: N 37°26' W 006°03'.
View on Google Maps.

See reports from other nearby stations

  
Tides and Currents Weather Stations Pressure Air Temp Water Temp Dewpoint Dewpoint Depression Visibility Wind Speed Wind Dir Waves Ship Positions
date/time (UTC)wind fromknots sea level pressurealtimeterstation pressurevisibilityair tempwater tempwave heightnotes
2017-Jul-22 04:07 132 18.9
2017-Jul-22 04:02 132 18.9
2017-Jul-22 03:57 132 18.9
2017-Jul-22 03:52 132 18.9
2017-Jul-22 03:47 132 18.9
2017-Jul-22 03:42 132 18.3
2017-Jul-22 03:37 132 18.3
2017-Jul-22 03:32 132 18.3
2017-Jul-22 03:27 132 18.3
2017-Jul-22 03:22 132 18.3
2017-Jul-22 03:17 132 18.3
2017-Jul-22 03:12 132 18.9
2017-Jul-22 03:07 132 18.9
2017-Jul-22 03:02 132 18.9
2017-Jul-22 02:57 132 18.9
2017-Jul-22 02:52 132 18.9
2017-Jul-22 02:47 132 18.9
2017-Jul-22 02:42 132 19.4
2017-Jul-22 02:37 132 19.4
2017-Jul-22 02:32 132 0 gusting 4 19.4
2017-Jul-22 02:27 132 1 gusting 4 19.4
2017-Jul-22 02:22 132 0 gusting 4 19.4
2017-Jul-22 02:17 125 19.4
2017-Jul-22 02:12 024 18.9
2017-Jul-22 02:07 024 19.4
2017-Jul-22 02:02 024 19.4
2017-Jul-22 01:57 024 19.4
2017-Jul-22 01:52 024 19.4
2017-Jul-22 01:47 024 19.4
2017-Jul-22 01:42 024 0 gusting 3 20.0
2017-Jul-22 01:37 019 0 gusting 3 20.0
2017-Jul-22 01:32 216 0 gusting 4 20.0
2017-Jul-22 01:27 216 1 gusting 4 20.0
2017-Jul-22 01:22 216 1 gusting 4 20.6
2017-Jul-22 01:17 216 0 gusting 4 20.6
2017-Jul-22 01:12 216 0 gusting 5 20.6
2017-Jul-22 01:07 219 0 gusting 5 20.6
2017-Jul-22 01:02 154 20.6
2017-Jul-22 00:57 157 20.6
2017-Jul-22 00:52 157 20.6
2017-Jul-22 00:47 157 20.6
2017-Jul-22 00:42 157 0 gusting 5 20.6
2017-Jul-22 00:37 157 1 gusting 5 20.6
2017-Jul-22 00:32 157 1 gusting 5 20.6
2017-Jul-22 00:27 157 0 gusting 4 20.6
2017-Jul-22 00:22 157 0 gusting 4 20.6
2017-Jul-22 00:17 157 0 gusting 3 20.6
2017-Jul-22 00:12 157 20.6
2017-Jul-22 00:07 157 20.6
2017-Jul-22 00:02 157 0 gusting 6 20.6
2017-Jul-21 23:57 157 2 gusting 7 20.6
2017-Jul-21 23:52 183 4 gusting 7 20.6
2017-Jul-21 23:47 178 4 gusting 7 20.6
2017-Jul-21 23:42 147 3 gusting 7 20.6
2017-Jul-21 23:37 180 2 gusting 7 20.6
2017-Jul-21 23:32 195 3 gusting 8 20.6
2017-Jul-21 23:27 178 4 gusting 8 21.1
2017-Jul-21 23:22 169 4 gusting 6 21.1
2017-Jul-21 23:17 183 4 gusting 6 21.1
2017-Jul-21 23:12 166 4 gusting 7 21.1
2017-Jul-21 23:07 186 4 gusting 7 21.1
2017-Jul-21 23:02 170 4 gusting 7 21.1
2017-Jul-21 22:57 188 4 gusting 7 21.1
2017-Jul-21 22:52 185 5 gusting 7 21.1
2017-Jul-21 22:47 181 4 gusting 7 21.1
2017-Jul-21 22:42 174 4 gusting 7 21.1
2017-Jul-21 22:37 168 3 gusting 9 21.1
2017-Jul-21 22:32 184 4 gusting 9 21.1
2017-Jul-21 22:27 172 4 gusting 9 21.1
2017-Jul-21 22:22 182 4 gusting 8 21.1
2017-Jul-21 22:17 176 4 gusting 8 21.1
2017-Jul-21 22:12 196 5 gusting 9 21.7
2017-Jul-21 22:07 196 5 gusting 9 21.7
2017-Jul-21 22:02 178 5 gusting 9 21.7
2017-Jul-21 21:57 178 5 gusting 10 21.7
2017-Jul-21 21:52 181 5 gusting 10 21.7
2017-Jul-21 21:47 194 5 gusting 9 21.7
2017-Jul-21 21:42 206 5 gusting 9 21.7
2017-Jul-21 21:37 155 5 gusting 9 21.7
2017-Jul-21 21:32 184 5 gusting 9 21.7
2017-Jul-21 21:27 187 5 gusting 9 21.7
2017-Jul-21 21:22 222 5 gusting 9 22.2
2017-Jul-21 21:17 188 5 gusting 11 22.2
2017-Jul-21 21:12 182 4 gusting 11 22.2
2017-Jul-21 21:07 201 4 gusting 11 22.2
2017-Jul-21 21:02 254 4 gusting 8 22.8
2017-Jul-21 20:57 194 4 gusting 11 22.8
2017-Jul-21 20:52 223 4 gusting 11 22.8
2017-Jul-21 20:47 221 4 gusting 11 22.8
2017-Jul-21 20:42 207 4 gusting 8 22.8
2017-Jul-21 20:37 196 5 gusting 10 22.8
2017-Jul-21 20:32 205 5 gusting 10 22.8
2017-Jul-21 20:27 215 5 gusting 10 22.8
2017-Jul-21 20:22 195 5 gusting 10 23.3
2017-Jul-21 20:17 208 4 gusting 11 23.3
2017-Jul-21 20:12 196 4 gusting 11 23.3
2017-Jul-21 20:07 198 3 gusting 8 23.3
2017-Jul-21 20:02 192 4 gusting 12 23.9
2017-Jul-21 19:57 207 5 gusting 13 23.9
2017-Jul-21 19:52 201 6 gusting 13 23.9
2017-Jul-21 19:47 235 6 gusting 13 23.9
2017-Jul-21 19:42 207 5 gusting 9 24.4
2017-Jul-21 19:37 218 4 gusting 11 24.4
2017-Jul-21 19:32 190 5 gusting 11 24.4
2017-Jul-21 19:27 198 6 gusting 11 25.0
2017-Jul-21 19:22 174 5 gusting 10 25.0
2017-Jul-21 19:17 214 5 gusting 10 25.6
2017-Jul-21 19:12 208 6 gusting 10 25.6
2017-Jul-21 19:07 219 5 gusting 13 25.6
2017-Jul-21 19:02 213 6 gusting 13 25.6
2017-Jul-21 18:57 234 7 gusting 13 25.6
2017-Jul-21 18:52 215 7 gusting 13 26.1
2017-Jul-21 18:47 192 6 gusting 13 26.1
2017-Jul-21 18:42 222 5 gusting 12 26.7
2017-Jul-21 18:37 212 6 gusting 13 26.7
2017-Jul-21 18:32 200 7 gusting 14 26.7
2017-Jul-21 18:27 209 7 gusting 14 26.7
2017-Jul-21 18:22 189 7 gusting 14 26.7
2017-Jul-21 18:17 180 6 gusting 14 27.2
2017-Jul-21 18:12 202 6 gusting 14 27.2
2017-Jul-21 18:07 223 7 gusting 14 27.2
2017-Jul-21 18:02 201 7 gusting 14 27.2
2017-Jul-21 17:57 230 7 gusting 14 27.8
2017-Jul-21 17:52 224 7 gusting 14 27.8
2017-Jul-21 17:47 235 6 gusting 13 27.8
2017-Jul-21 17:42 214 6 gusting 13 27.8
2017-Jul-21 17:37 231 6 gusting 14 27.8
2017-Jul-21 17:32 192 6 gusting 15 27.8
2017-Jul-21 17:27 234 8 gusting 15 27.8
2017-Jul-21 17:22 229 9 gusting 15 27.8
2017-Jul-21 17:17 229 9 gusting 16 27.8
2017-Jul-21 17:12 203 8 gusting 16 28.3
2017-Jul-21 17:07 207 8 gusting 16 28.3
2017-Jul-21 17:02 238 8 gusting 20 28.3
2017-Jul-21 16:57 217 9 gusting 20 28.3
2017-Jul-21 16:52 203 9 gusting 17 28.3
2017-Jul-21 16:47 190 8 gusting 17 28.3
2017-Jul-21 16:42 218 8 gusting 17 28.3
2017-Jul-21 16:37 202 8 gusting 14 28.3
2017-Jul-21 16:32 206 8 gusting 17 28.3
2017-Jul-21 16:27 204 9 gusting 20 28.3
2017-Jul-21 16:22 194 9 gusting 20 28.3
2017-Jul-21 16:17 182 9 gusting 20 28.3
2017-Jul-21 16:12 211 10 gusting 19 28.3
2017-Jul-21 16:07 236 11 gusting 22 28.3
2017-Jul-21 16:02 200 11 gusting 22 28.3
2017-Jul-21 15:57 192 10 gusting 22 28.3
2017-Jul-21 15:52 202 10 gusting 21 28.3
2017-Jul-21 15:47 179 10 gusting 21 28.9
2017-Jul-21 15:42 196 10 gusting 20 28.9
2017-Jul-21 15:37 182 11 gusting 20 28.9
2017-Jul-21 15:32 206 8 gusting 19 29.4
2017-Jul-21 15:27 213 6 gusting 13 30.0
2017-Jul-21 15:22 224 5 gusting 10 30.0
2017-Jul-21 15:17 219 4 gusting 10 30.0
2017-Jul-21 15:12 229 5 gusting 10 30.0
2017-Jul-21 15:07 205 5 gusting 11 30.0
2017-Jul-21 15:02 230 5 gusting 11 30.0
2017-Jul-21 14:57 229 6 gusting 11 30.0
2017-Jul-21 14:52 216 6 gusting 14 29.4
2017-Jul-21 14:47 243 5 gusting 14 29.4
2017-Jul-21 14:42 200 4 gusting 13 30.0
2017-Jul-21 14:37 199 4 gusting 13 30.0
2017-Jul-21 14:32 234 5 gusting 13 29.4
2017-Jul-21 14:27 221 4 gusting 12 29.4
2017-Jul-21 14:22 270 5 gusting 12 29.4
2017-Jul-21 14:17 225 6 gusting 12 29.4
2017-Jul-21 14:12 197 5 gusting 12 29.4
2017-Jul-21 14:07 192 6 gusting 12 28.9
2017-Jul-21 14:02 254 5 gusting 13 28.9
2017-Jul-21 13:57 202 5 gusting 13 28.9
2017-Jul-21 13:52 240 6 gusting 13 28.9
2017-Jul-21 13:47 237 6 gusting 13 28.3
2017-Jul-21 13:42 205 6 gusting 13 28.3
2017-Jul-21 13:37 227 6 gusting 13 28.3
2017-Jul-21 13:32 196 5 gusting 11 28.3
2017-Jul-21 13:27 222 5 gusting 11 28.3
2017-Jul-21 13:22 225 6 gusting 14 28.3
2017-Jul-21 13:17 206 6 gusting 14 28.3
2017-Jul-21 13:12 252 6 gusting 14 27.8
2017-Jul-21 13:07 194 6 gusting 13 27.8
2017-Jul-21 13:02 198 6 gusting 13 27.8
2017-Jul-21 12:57 183 6 gusting 12 27.8
2017-Jul-21 12:52 203 6 gusting 14 27.8
2017-Jul-21 12:47 209 6 gusting 14 27.8
2017-Jul-21 12:42 229 6 gusting 14 27.2
2017-Jul-21 12:37 205 6 gusting 11 27.8
2017-Jul-21 12:32 249 5 gusting 12 27.2
2017-Jul-21 12:27 221 6 gusting 12 27.2
2017-Jul-21 12:22 192 6 gusting 13 27.2
2017-Jul-21 12:17 208 6 gusting 13 27.2
2017-Jul-21 12:12 158 6 gusting 13 27.2
2017-Jul-21 12:07 221 6 gusting 14 27.2
2017-Jul-21 12:02 232 6 gusting 14 26.7
2017-Jul-21 11:57 223 6 gusting 14 26.7
2017-Jul-21 11:52 236 6 gusting 14 26.7
2017-Jul-21 11:47 214 6 gusting 14 26.7
2017-Jul-21 11:42 253 6 gusting 14 26.1
2017-Jul-21 11:37 286 6 gusting 14 26.1
2017-Jul-21 11:32 242 6 gusting 13 26.1
2017-Jul-21 11:27 221 6 gusting 13 26.1
2017-Jul-21 11:22 219 6 gusting 13 25.6
2017-Jul-21 11:17 224 6 gusting 13 25.6
2017-Jul-21 11:12 186 6 gusting 13 25.6
2017-Jul-21 11:07 216 7 gusting 13 25.0
2017-Jul-21 11:02 231 7 gusting 13 25.0
2017-Jul-21 10:57 211 6 gusting 13 25.0
2017-Jul-21 10:52 227 6 gusting 13 25.0
2017-Jul-21 10:47 202 6 gusting 14 25.0
2017-Jul-21 10:42 259 6 gusting 14 24.4
2017-Jul-21 10:37 219 6 gusting 14 24.4
2017-Jul-21 10:32 237 6 gusting 13 24.4
2017-Jul-21 10:27 248 6 gusting 13 24.4
2017-Jul-21 10:22 219 5 gusting 11 24.4
2017-Jul-21 10:17 264 5 gusting 11 24.4
2017-Jul-21 10:12 234 5 gusting 11 23.9
2017-Jul-21 10:07 203 6 gusting 11 23.9
2017-Jul-21 10:02 217 6 gusting 12 23.3
2017-Jul-21 09:57 238 6 gusting 12 23.3
2017-Jul-21 09:52 221 6 gusting 14 23.3
2017-Jul-21 09:47 221 6 gusting 14 23.3
2017-Jul-21 09:42 229 6 gusting 11 23.3
2017-Jul-21 09:37 252 5 gusting 11 23.3
2017-Jul-21 09:32 226 4 gusting 11 23.3
2017-Jul-21 09:27 276 3 gusting 11 23.3
2017-Jul-21 09:22 191 4 gusting 11 23.3
2017-Jul-21 09:17 188 4 gusting 11 23.3
2017-Jul-21 09:12 188 4 gusting 10 23.3
2017-Jul-21 09:07 164 4 gusting 10 22.8
2017-Jul-21 09:02 225 4 gusting 10 22.8
2017-Jul-21 08:57 197 4 gusting 10 22.8
2017-Jul-21 08:52 243 4 gusting 10 22.8
2017-Jul-21 08:47 218 3 gusting 7 22.8
2017-Jul-21 08:42 216 2 gusting 7 22.8
2017-Jul-21 08:37 231 0 gusting 5 22.8
2017-Jul-21 08:32 098 0 gusting 6 22.8
2017-Jul-21 08:27 169 1 gusting 6 22.2
2017-Jul-21 08:22 165 1 gusting 6 22.2
2017-Jul-21 08:17 229 0 gusting 6 22.2
2017-Jul-21 08:12 214 0 gusting 3 22.2
2017-Jul-21 08:07 214 22.2
2017-Jul-21 08:02 214 0 gusting 4 21.7
2017-Jul-21 07:57 214 0 gusting 4 21.7
2017-Jul-21 07:52 214 0 gusting 2 21.7
2017-Jul-21 07:47 248 0 gusting 3 21.7
2017-Jul-21 07:42 315 0 gusting 3 21.1
2017-Jul-21 07:37 198 0 gusting 3 21.1
2017-Jul-21 07:32 199 21.7
2017-Jul-21 07:27 198 21.7
2017-Jul-21 07:22 198 21.1
2017-Jul-21 07:17 198 21.1
2017-Jul-21 07:12 199 20.6
2017-Jul-21 07:07 198 20.6
2017-Jul-21 07:02 199 20.0
2017-Jul-21 06:57 198 20.0
2017-Jul-21 06:52 198 19.4
2017-Jul-21 06:47 198 19.4
2017-Jul-21 06:42 198 0 gusting 3 18.9
2017-Jul-21 06:37 199 1 gusting 3 18.9
2017-Jul-21 06:32 198 0 gusting 3 18.9
2017-Jul-21 06:27 199 0 gusting 3 18.9
2017-Jul-21 06:22 199 0 gusting 3 18.9
2017-Jul-21 06:17 198 0 gusting 4 18.9
2017-Jul-21 06:12 199 1 gusting 4 18.3
2017-Jul-21 06:07 198 1 gusting 4 18.3
2017-Jul-21 06:02 198 2 gusting 4 18.3
2017-Jul-21 05:57 198 1 gusting 4 18.3
2017-Jul-21 05:52 198 1 gusting 3 18.3
2017-Jul-21 05:47 198 1 gusting 4 18.3
2017-Jul-21 05:42 198 1 gusting 4 18.3
2017-Jul-21 05:37 198 1 gusting 4 18.3
2017-Jul-21 05:32 198 1 gusting 3 18.3
2017-Jul-21 05:27 198 1 gusting 3 18.3
2017-Jul-21 05:22 198 1 gusting 4 18.3
2017-Jul-21 05:17 198 1 gusting 4 18.3
2017-Jul-21 05:12 198 1 gusting 3 18.3
2017-Jul-21 05:07 198 1 gusting 3 18.3
2017-Jul-21 05:02 198 0 gusting 3 18.9
2017-Jul-21 04:57 198 18.9
2017-Jul-21 04:52 198 0 gusting 3 18.3
2017-Jul-21 04:47 198 0 gusting 3 18.3
2017-Jul-21 04:42 198 0 gusting 2 18.3
2017-Jul-21 04:37 198 18.3
2017-Jul-21 04:32 198 18.9
2017-Jul-21 04:27 198 18.9
2017-Jul-21 04:22 198 18.9
2017-Jul-21 04:17 198 18.9
2017-Jul-21 04:12 198 19.4
2017-Jul-21 04:08 198 19.4
2017-Jul-21 03:57 198 19.4
2017-Jul-21 03:52 198 19.4
2017-Jul-21 03:47 198 0 gusting 3 19.4
2017-Jul-21 03:42 198 0 gusting 5 19.4
2017-Jul-21 03:37 198 1 gusting 5 19.4
2017-Jul-21 03:32 198 1 gusting 5 19.4
2017-Jul-21 03:27 198 19.4
2017-Jul-21 03:22 199 19.4
2017-Jul-21 03:17 198 19.4
2017-Jul-21 03:12 198 19.4
2017-Jul-21 03:07 198 0 gusting 2 19.4
2017-Jul-21 03:02 198 0 gusting 2 20.0
2017-Jul-21 02:57 198 20.0
2017-Jul-21 02:52 198 20.0
2017-Jul-21 02:47 199 20.6
2017-Jul-21 02:42 198 20.6
2017-Jul-21 02:37 198 20.6
2017-Jul-21 02:32 198 20.6
2017-Jul-21 02:27 198 20.6
2017-Jul-21 02:22 198 20.6
2017-Jul-21 02:17 198 20.6
2017-Jul-21 02:12 198 20.6
2017-Jul-21 02:07 198 20.6
2017-Jul-21 02:02 199 20.6
2017-Jul-21 01:57 198 21.1
2017-Jul-21 01:52 198 21.1
2017-Jul-21 01:47 198 21.1
2017-Jul-21 01:42 198 21.1
2017-Jul-21 01:37 198 21.1
2017-Jul-21 01:32 198 21.1
2017-Jul-21 01:27 198 21.1
2017-Jul-21 01:22 198 21.1
2017-Jul-21 01:17 198 21.1
2017-Jul-21 01:12 198 21.1
2017-Jul-21 01:07 198 21.1
2017-Jul-21 01:02 198 21.1
2017-Jul-21 00:57 198 0 gusting 2 21.1
2017-Jul-21 00:52 199 0 gusting 2 21.1
2017-Jul-21 00:47 198 21.1
2017-Jul-21 00:42 198 0 gusting 4 21.1
2017-Jul-21 00:37 198 0 gusting 4 21.1
2017-Jul-21 00:32 199 1 gusting 4 21.1
2017-Jul-21 00:27 198 2 gusting 5 21.1
2017-Jul-21 00:22 198 2 gusting 5 21.1
2017-Jul-21 00:17 198 2 gusting 4 21.1
2017-Jul-21 00:12 198 1 gusting 4 21.1
2017-Jul-21 00:07 198 1 gusting 4 21.1
2017-Jul-21 00:02 199 1 gusting 4 21.1
2017-Jul-20 23:57 198 1 gusting 3 21.1
2017-Jul-20 23:52 198 0 gusting 5 21.1
2017-Jul-20 23:47 198 2 gusting 5 21.1
2017-Jul-20 23:42 198 2 gusting 5 21.1
2017-Jul-20 23:37 209 1 gusting 5 21.7
2017-Jul-20 23:32 179 1 gusting 5 21.7
2017-Jul-20 23:27 180 1 gusting 3 21.7
2017-Jul-20 23:22 180 0 gusting 5 21.7
2017-Jul-20 23:17 179 1 gusting 6 21.7
2017-Jul-20 23:12 180 1 gusting 7 21.7
2017-Jul-20 23:07 164 2 gusting 8 21.7
2017-Jul-20 23:02 231 4 gusting 8 21.7
2017-Jul-20 22:57 169 5 gusting 8 21.7
2017-Jul-20 22:52 170 5 gusting 7 21.7
2017-Jul-20 22:47 178 4 gusting 7 21.7
2017-Jul-20 22:42 165 4 gusting 8 22.2
2017-Jul-20 22:37 186 4 gusting 8 22.2
2017-Jul-20 22:32 165 4 gusting 8 22.2
2017-Jul-20 22:27 188 4 gusting 7 22.2
2017-Jul-20 22:22 200 4 gusting 7 22.2
2017-Jul-20 22:17 157 5 gusting 7 22.2
2017-Jul-20 22:12 173 4 gusting 15 22.2
2017-Jul-20 22:07 146 4 gusting 15 22.2
2017-Jul-20 22:02 192 6 gusting 15 22.2
2017-Jul-20 21:57 231 5 gusting 17 22.8
2017-Jul-20 21:52 282 6 gusting 17 22.8
2017-Jul-20 21:47 189 7 gusting 14 22.8
2017-Jul-20 21:42 166 7 gusting 13 22.8
2017-Jul-20 21:37 190 6 gusting 9 22.8
2017-Jul-20 21:32 204 4 gusting 7 22.8
2017-Jul-20 21:27 148 3 gusting 10 22.8
2017-Jul-20 21:22 198 4 gusting 10 22.8
2017-Jul-20 21:17 198 3 gusting 10 23.3
2017-Jul-20 21:12 167 2 gusting 8 23.3
2017-Jul-20 21:07 211 4 gusting 8 23.3
2017-Jul-20 21:02 194 4 gusting 8 23.3
2017-Jul-20 20:57 153 4 gusting 8 23.3
2017-Jul-20 20:52 191 5 gusting 8 23.3
2017-Jul-20 20:47 190 5 gusting 8 23.3
2017-Jul-20 20:42 196 5 gusting 8 23.3
2017-Jul-20 20:37 150 4 gusting 10 23.9
2017-Jul-20 20:32 236 5 gusting 11 23.9
2017-Jul-20 20:27 205 6 gusting 11 23.9
2017-Jul-20 20:22 194 6 gusting 11 23.9
2017-Jul-20 20:17 171 5 gusting 11 23.9
2017-Jul-20 20:12 189 6 gusting 11 24.4
2017-Jul-20 20:07 193 6 gusting 12 24.4
2017-Jul-20 20:02 155 6 gusting 12 24.4
2017-Jul-20 19:57 177 6 gusting 12 24.4
2017-Jul-20 19:52 202 6 gusting 12 24.4
2017-Jul-20 19:47 171 5 gusting 13 25.0
2017-Jul-20 19:42 234 6 gusting 13 25.0
2017-Jul-20 19:37 186 6 gusting 13 25.0
2017-Jul-20 19:32 157 5 gusting 11 25.0
2017-Jul-20 19:27 194 3 gusting 10 25.6
2017-Jul-20 19:22 206 3 gusting 12 25.6
2017-Jul-20 19:17 221 4 gusting 12 25.6
2017-Jul-20 19:12 155 4 gusting 12 26.1
2017-Jul-20 19:07 179 2 gusting 15 26.1
2017-Jul-20 19:02 162 4 gusting 15 26.7
2017-Jul-20 18:57 156 6 gusting 15 26.7
2017-Jul-20 18:52 188 6 gusting 13 26.7
2017-Jul-20 18:47 194 5 gusting 17 26.7
2017-Jul-20 18:42 226 6 gusting 17 26.7
2017-Jul-20 18:37 189 7 gusting 13 27.2
2017-Jul-20 18:32 213 6 gusting 14 27.2
2017-Jul-20 18:27 232 7 gusting 14 27.2
2017-Jul-20 18:22 219 6 gusting 16 27.8
2017-Jul-20 18:17 210 8 gusting 16 27.8
2017-Jul-20 18:12 182 9 gusting 16 27.8
2017-Jul-20 18:07 210 8 gusting 16 27.8
2017-Jul-20 18:02 204 8 gusting 15 28.3
2017-Jul-20 17:57 207 9 gusting 15 28.3
2017-Jul-20 17:52 210 7 gusting 17 28.3
2017-Jul-20 17:47 203 8 gusting 19 28.9
2017-Jul-20 17:42 221 10 gusting 19 28.3
2017-Jul-20 17:37 202 10 gusting 17 28.9
2017-Jul-20 17:32 238 10 gusting 19 28.9
2017-Jul-20 17:27 234 11 gusting 19 28.9
2017-Jul-20 17:22 213 10 gusting 18 29.4
2017-Jul-20 17:17 247 10 gusting 19 29.4
2017-Jul-20 17:12 207 10 gusting 19 29.4
2017-Jul-20 17:07 225 11 gusting 20 29.4
2017-Jul-20 17:02 227 11 gusting 20 29.4
2017-Jul-20 16:57 226 11 gusting 20 29.4
2017-Jul-20 16:52 221 11 gusting 20 29.4
2017-Jul-20 16:47 194 10 gusting 20 30.0
2017-Jul-20 16:42 198 10 gusting 19 30.0
2017-Jul-20 16:37 184 10 gusting 19 30.0
2017-Jul-20 16:32 180 10 gusting 20 30.0
2017-Jul-20 16:27 232 10 gusting 20 30.0
2017-Jul-20 16:22 227 11 gusting 20 30.0
2017-Jul-20 16:17 183 10 gusting 20 30.6
2017-Jul-20 16:12 198 9 gusting 19 30.6
2017-Jul-20 16:07 166 10 gusting 19 30.6
2017-Jul-20 16:02 150 9 gusting 18 30.6
2017-Jul-20 15:57 159 9 gusting 18 30.6
2017-Jul-20 15:52 193 10 gusting 20 30.6
2017-Jul-20 15:47 178 9 gusting 20 30.0
2017-Jul-20 15:42 192 9 gusting 20 30.6
2017-Jul-20 15:37 184 9 gusting 15 30.6
2017-Jul-20 15:32 182 8 gusting 17 30.6
2017-Jul-20 15:27 179 9 gusting 17 30.6
2017-Jul-20 15:22 130 8 gusting 17 30.6
2017-Jul-20 15:17 213 8 gusting 16 30.6
2017-Jul-20 15:12 202 8 gusting 14 30.6
2017-Jul-20 15:07 199 7 gusting 15 30.6
2017-Jul-20 15:02 133 7 gusting 16 30.6
2017-Jul-20 14:57 186 8 gusting 16 30.6
2017-Jul-20 14:52 149 8 gusting 16 30.6
2017-Jul-20 14:47 182 8 gusting 19 30.6
2017-Jul-20 14:42 173 7 gusting 19 30.6
2017-Jul-20 14:37 204 8 gusting 22 30.6
2017-Jul-20 14:32 170 9 gusting 22 30.6
2017-Jul-20 14:27 225 8 gusting 22 30.6
2017-Jul-20 14:22 137 7 gusting 17 30.6
2017-Jul-20 14:17 205 6 gusting 20 30.6
2017-Jul-20 14:12 181 7 gusting 20 30.6
2017-Jul-20 14:07 115 6 gusting 20 30.6
2017-Jul-20 14:02 183 4 gusting 9 30.6
2017-Jul-20 13:57 161 4 gusting 12 30.6
2017-Jul-20 13:52 227 4 gusting 13 30.6
2017-Jul-20 13:47 178 6 gusting 13 30.6
2017-Jul-20 13:42 207 5 gusting 13 30.6
2017-Jul-20 13:37 208 4 gusting 10 30.6
2017-Jul-20 13:32 243 4 gusting 10 30.6
2017-Jul-20 13:27 246 4 gusting 9 30.6
2017-Jul-20 13:22 185 3 gusting 12 30.0
2017-Jul-20 13:07 232 4 gusting 12 30.0
2017-Jul-20 13:02 225 2 gusting 11 30.0
2017-Jul-20 12:57 355 3 gusting 11 30.0
2017-Jul-20 12:52 171 4 gusting 11 29.4
2017-Jul-20 12:47 232 4 gusting 12 30.0
2017-Jul-20 12:42 222 4 gusting 12 30.0
2017-Jul-20 12:37 221 4 gusting 12 29.4
2017-Jul-20 12:32 213 5 gusting 12 29.4
2017-Jul-20 12:27 265 4 gusting 12 29.4
2017-Jul-20 12:22 295 4 gusting 13 29.4
2017-Jul-20 12:17 316 6 gusting 9 29.4
2017-Jul-20 12:12 238 5 gusting 9 29.4
2017-Jul-20 12:07 261 3 gusting 9 28.9
2017-Jul-20 12:02 264 2 gusting 10 28.9
2017-Jul-20 11:57 207 4 gusting 12 28.9
2017-Jul-20 11:52 219 5 gusting 12 28.9
2017-Jul-20 11:47 227 3 gusting 7 28.9
2017-Jul-20 11:42 219 2 gusting 10 28.3
2017-Jul-20 11:37 190 4 gusting 10 28.3
2017-Jul-20 11:32 223 5 gusting 11 28.3
2017-Jul-20 11:27 186 5 gusting 11 28.3
2017-Jul-20 11:22 231 3 gusting 9 28.3
2017-Jul-20 11:17 195 4 gusting 9 28.3
2017-Jul-20 11:12 290 4 gusting 9 27.8
2017-Jul-20 11:07 263 2 gusting 7 28.3
2017-Jul-20 11:02 160 1 gusting 10 28.3
2017-Jul-20 10:57 203 4 gusting 10 27.8
2017-Jul-20 10:52 173 4 gusting 10 27.8
2017-Jul-20 10:47 190 4 gusting 6 27.8
2017-Jul-20 10:42 190 3 gusting 8 27.8
2017-Jul-20 10:37 206 3 gusting 8 27.2
2017-Jul-20 10:32 248 4 gusting 8 27.8
2017-Jul-20 10:27 228 3 gusting 7 27.2
2017-Jul-20 10:22 160 2 gusting 8 27.2
2017-Jul-20 10:17 246 3 gusting 8 27.2
2017-Jul-20 10:12 182 2 gusting 8 27.2
2017-Jul-20 10:07 181 0 gusting 7 27.2
2017-Jul-20 10:02 120 1 gusting 7 27.2
2017-Jul-20 09:57 126 2 gusting 7 27.2
2017-Jul-20 09:52 165 1 gusting 6 26.7
2017-Jul-20 09:47 215 1 gusting 6 26.7
2017-Jul-20 09:42 215 2 gusting 6 26.7
2017-Jul-20 09:37 165 1 gusting 6 26.7
2017-Jul-20 09:32 111 1 gusting 6 26.7
2017-Jul-20 09:27 146 0 gusting 4 26.7
2017-Jul-20 09:22 156 0 gusting 4 26.7
2017-Jul-20 09:17 156 0 gusting 4 26.7
2017-Jul-20 09:12 156 0 gusting 4 26.1
2017-Jul-20 09:07 156 0 gusting 4 26.1
2017-Jul-20 09:02 156 0 gusting 4 26.1
2017-Jul-20 08:57 156 0 gusting 4 26.1
2017-Jul-20 08:52 156 0 gusting 4 25.6
2017-Jul-20 08:47 174 25.6
2017-Jul-20 08:42 110 0 gusting 4 25.0
2017-Jul-20 08:37 110 0 gusting 4 25.0
2017-Jul-20 08:32 110 1 gusting 4 24.4
2017-Jul-20 08:27 110 1 gusting 4 25.0
2017-Jul-20 08:22 142 0 gusting 3 25.0
2017-Jul-20 08:17 142 0 gusting 3 25.0
2017-Jul-20 08:12 142 0 gusting 3 25.0
2017-Jul-20 08:07 142 0 gusting 4 24.4
2017-Jul-20 08:02 142 24.4
2017-Jul-20 07:57 079 0 gusting 4 24.4
2017-Jul-20 07:52 075 0 gusting 2 23.9
2017-Jul-20 07:47 068 0 gusting 3 24.4
2017-Jul-20 07:42 026 0 gusting 3 24.4
2017-Jul-20 07:37 026 0 gusting 4 23.9
2017-Jul-20 07:32 010 0 gusting 4 23.9
2017-Jul-20 07:27 010 0 gusting 4 23.9
2017-Jul-20 07:22 005 0 gusting 4 23.9
2017-Jul-20 07:17 355 0 gusting 3 23.3
2017-Jul-20 07:12 319 0 gusting 3 23.3
2017-Jul-20 07:07 318 0 gusting 4 22.8
2017-Jul-20 07:02 326 1 gusting 4 22.8
2017-Jul-20 06:57 333 1 gusting 4 22.8
2017-Jul-20 06:52 336 1 gusting 4 22.8
2017-Jul-20 06:47 318 0 gusting 4 22.2
2017-Jul-20 06:42 330 0 gusting 4 22.2
2017-Jul-20 06:37 322 0 gusting 4 22.2
2017-Jul-20 06:32 325 0 gusting 4 21.7
2017-Jul-20 06:27 314 0 gusting 4 21.7
2017-Jul-20 06:22 321 1 gusting 4 21.7
2017-Jul-20 06:17 296 0 gusting 3 21.1
2017-Jul-20 06:12 296 0 gusting 3 21.1
2017-Jul-20 06:07 296 0 gusting 3 21.1
2017-Jul-20 06:02 296 0 gusting 2 21.1
2017-Jul-20 05:57 296 0 gusting 2 21.1
2017-Jul-20 05:52 296 0 gusting 2 21.1
2017-Jul-20 05:47 296 21.1
2017-Jul-20 05:42 296 21.1
2017-Jul-20 05:37 296 21.7
2017-Jul-20 05:32 296 21.7
2017-Jul-20 05:27 296 21.7
2017-Jul-20 05:22 296 21.7
2017-Jul-20 05:17 296 21.7
2017-Jul-20 05:12 296 0 gusting 3 21.7
2017-Jul-20 05:07 296 21.7
2017-Jul-20 05:02 160 21.7
2017-Jul-20 04:57 159 0 gusting 3 21.7
2017-Jul-20 04:52 156 0 21.7
2017-Jul-20 04:47 156 21.7
2017-Jul-20 04:42 156 21.7
2017-Jul-20 04:37 156 21.7
2017-Jul-20 04:32 156 21.7
2017-Jul-20 04:27 156 21.7
2017-Jul-20 04:22 156 21.7
2017-Jul-20 04:17 156 21.7
2017-Jul-20 04:12 156 21.7
2017-Jul-20 04:07 156 21.7
2017-Jul-20 04:02 156 21.7